St. Clothilde, Quebec

7:18 PM EDT on June 24, 2017 (GMT -0400)
St. Clothilde

Weather History for CWIT - November, 2012

Change the Weather History Date:

Saturday, November 24, 2012

  Actual Average Record
Temperature  
Mean Temperature 32 °F -  
Max Temperature 37 °F - - ()
Min Temperature 28 °F - - ()
Degree Days  
Heating Degree Days 32    
Moisture  
Dew Point 26 °F    
Average Humidity 70    
Maximum Humidity 84    
Minimum Humidity 52    
Precipitation  
Precipitation 0.00 in - - ()
Sea Level Pressure  
Sea Level Pressure 29.56 in    
Wind  
Wind Speed 9 mph ()    
Max Wind Speed 15 mph    
Max Gust Speed 26 mph    
T = Trace of Precipitation, MM = Missing Value Source: Averaged Metar Reports

Daily Weather History Graph

Daily Weather History Graph

Search for Another Location

Airport or City:

Trip Planner

Search our weather history database for the weather conditions in past years. The results will help you decide how hot, cold, wet, or windy it might be!

Date:

Astronomy

Nov. 24, 2012 Rise Set
Actual Time 7:05 AM EST 4:17 PM EST
Civil Twilight 6:32 AM EST 4:50 PM EST
Nautical Twilight 5:56 AM EST 5:26 PM EST
Astronomical Twilight 5:21 AM EST 6:01 PM EST
Moon 2:07 PM EST 3:11 AM EST
Length of Visible Light 10h 17m
Length of Day
9h 12m
Waxing Gibbous, 87% of the Moon is Illuminated
Nov 24
Waxing Gibbous
Nov 28
Full
Dec 6
Last Quarter
Dec 13
New
Dec 20
First Quarter

Hourly Weather History & Observations

Time (EST) Temp. Windchill Dew Point Humidity Pressure Visibility Wind Dir Wind Speed Gust Speed Precip Events Conditions
12:00 AM 46.2 °F 41.7 °F 31.3 °F 56% 29.53 in - WSW 9.2 mph - N/A   Unknown
1:00 AM 45 °F - 33 °F 52% 29.54 in - WSW 10.4 mph - -  
1:00 AM 44.8 °F 39.4 °F 33.3 °F 64% 29.54 in - WSW 10.4 mph 20.7 mph N/A   Unknown
2:00 AM 41.2 °F 36.0 °F 31.3 °F 68% 29.54 in - WSW 8.1 mph - N/A   Unknown
3:00 AM 39.6 °F 34.0 °F 28.2 °F 64% 29.54 in - WSW 8.1 mph - N/A   Unknown
4:00 AM 38.7 °F 32.4 °F 27.9 °F 65% 29.52 in - WSW 9.2 mph 18.4 mph N/A   Unknown
5:00 AM 36.7 °F 31.2 °F 28.8 °F 73% 29.52 in - WSW 6.9 mph - N/A   Unknown
6:00 AM 37.2 °F 31.2 °F 28.0 °F 69% 29.52 in - WSW 8.1 mph - N/A   Unknown
7:00 AM 37 °F - 28 °F 59% 29.51 in - WSW 6.9 mph - -  
7:00 AM 36.9 °F 31.4 °F 27.7 °F 69% 29.51 in - WSW 6.9 mph - N/A   Unknown
8:00 AM 36.1 °F 31.4 °F 27.9 °F 72% 29.52 in - WSW 5.8 mph - N/A   Unknown
9:00 AM 35.6 °F 27.5 °F 28.2 °F 75% 29.53 in - WSW 11.5 mph 21.9 mph N/A   Unknown
10:00 AM 34.0 °F 25.0 °F 28.0 °F 79% 29.54 in - West 12.7 mph 23.0 mph N/A   Unknown
11:00 AM 33.8 °F 23.9 °F 24.8 °F 70% 29.54 in - West 15.0 mph 25.3 mph N/A   Unknown
12:00 PM 33.6 °F 23.7 °F 23.5 °F 67% 29.53 in - West 15.0 mph 26.5 mph N/A   Unknown
1:00 PM 31 °F - 26 °F 76% 29.55 in - West 11.5 mph - -  
1:00 PM 31.3 °F 22.1 °F 26.2 °F 82% 29.55 in - West 11.5 mph 20.7 mph N/A   Unknown
2:00 PM 31.1 °F 21.4 °F 23.7 °F 74% 29.55 in - West 12.7 mph 23.0 mph N/A   Unknown
3:00 PM 30.9 °F 22.2 °F 23.5 °F 74% 29.57 in - West 10.4 mph 17.3 mph N/A   Unknown
4:00 PM 29.8 °F 20.9 °F 25.5 °F 84% 29.58 in - West 10.4 mph - N/A   Unknown
5:00 PM 31.5 °F 22.3 °F 21.7 °F 67% 29.59 in - West 11.5 mph - N/A   Unknown
6:00 PM 30.6 °F 21.2 °F 23.2 °F 74% 29.60 in - West 11.5 mph 24.2 mph N/A   Unknown
7:00 PM 30 °F - 22 °F 64% 29.61 in - West 11.5 mph - -  
7:00 PM 30.4 °F 21.0 °F 22.5 °F 72% 29.61 in - West 11.5 mph 19.6 mph N/A   Unknown
8:00 PM 29.7 °F 19.6 °F 22.1 °F 73% 29.62 in - West 12.7 mph 21.9 mph N/A   Unknown
9:00 PM 29.3 °F 18.2 °F 21.4 °F 72% 29.63 in - WNW 15.0 mph 26.5 mph N/A   Unknown
10:00 PM 28.8 °F 19.0 °F 19.4 °F 68% 29.65 in - WNW 11.5 mph 20.7 mph N/A   Unknown
11:00 PM 28.6 °F 18.2 °F 18.9 °F 67% 29.65 in - WNW 12.7 mph 21.9 mph N/A   Unknown